Starlink 32425

operational
NORAD ID: 61216 Int'l Des: 2024-171 Owner: SPXS Country: US Constellation: starlink
LEOCIRCULAR

关于 Starlink 32425

正在加载描述...

实时位置

正在加载3D地球...

即将过境

高度历史

Altitude vs Time

uPlot chart will show altitude changes over time

两行轨道根数

1 61216U 24171S 25258.16647564 .00000265 00000-0 21084-4 0 9994
2 61216 53.1610 57.8346 0001085 91.9534 268.1591 15.30197480 55495
Epoch: Sep 15, 2025 • Age: 19 hours

当前状态

高度 479.6 km
速度 7.63 km/s
星下点 46.65°N, 162.77°W
发射日期 Sep 20, 2024
运行时间 0.9 years
类型 internet

技术详情

分类 Payload
质量 730.00 kg
干质量 700.00 kg
总质量 730.00 kg
长度 0.30 m
直径 4.10 m
跨度 29.00 m
形状 Box + pan
制造商 SPXS
平台类型 Starlink V2M
阶段状态 In Orbit
所有者/国家 SPXS/US

大型星座

Loading constellations...